Location: Rio Negrinho
(26.2394°S, 49.4999°W)
Time: 07:44:15
(UTC+00:00)

H-2A R/B - Pass Details

Date: 02 October 2020
Orbit: 500 x 542 km, 97.3° (Epoch: 17 June)

Event Time Altitude Azimuth Distance (km) Brightness Sun altitude
Rises 08:27:51 0° 9° (N) 2,613 6.3 -7.1°
Reaches altitude 10° 08:29:54 10° 7° (N) 1,741 5.4 -6.6°
Maximum altitude 08:33:40 77° 282° (WNW) 543 2.7 -5.8°
Drops below altitude 10° 08:37:32 10° 194° (SSW) 1,791 5.4 -5.0°
Sets 08:39:41 0° 192° (SSW) 2,696 6.3 -4.5°
